Location: Marcé
(47.5801°N, 0.3280°W)
Time: 06:54:43
(UTC+01:00)

Altair - Pass Details

Date: 10 December 2021
Orbit: 1501 x 1683 km, 47.2° (Epoch: 21 January)

Event Time Altitude Azimuth Distance (km) Brightness Sun altitude
Rises 19:59:02 0° 287° (WNW) 4,721 11.1 -27.5°
Reaches altitude 10° 20:02:10 10° 285° (WNW) 3,715 10.4 -28.0°
Maximum altitude 20:11:17 62° 207° (SSW) 1,668 7.7 -29.5°
Enters shadow 20:14:52 39° 146° (SE) 2,112 7.9 -30.1°
Drops below altitude 10° 20:20:14 10° 130° (SE) 3,646 - -31.0°
Sets 20:23:17 0° 127° (SE) 4,628 - -31.5°
